Temperature
15 15 15 16 17 17 19 22 23 23 22 22 22 22 21 20 20 18 16 16 16 16 16 16 16 17 17 17 17 17 17 17 17 17 17 17 17 17 17 17 17 16 16 16 16 16 16 16 16
14 15 16 17 17 18 21 22 22 22 21 21 21 21 21 20 19 17 16 16 16 16 16 16 16 16 17 17 17 17 17 17 17 17 17 17 17 17 16 16 16 16 16 16 16 16 16 16 16
14 15 16 17 18 20 21 22 21 21 21 21 21 20 20 19 18 16 16 16 16 16 15 16 16 16 16 17 17 17 17 17 17 17 17 17 16 16 16 16 16 16 16 16 16 16 16 16 16
14 15 17 17 19 21 21 21 20 21 20 20 20 19 19 18 17 16 16 15 15 15 15 15 16 16 16 16 16 17 17 17 17 17 16 16 16 16 16 16 16 16 16 16 16 16 16 15 15
14 16 17 18 19 20 21 20 20 20 20 20 19 18 18 16 16 16 15 15 15 15 15 15 15 15 16 16 16 16 16 16 16 16 16 16 16 16 16 16 16 16 16 16 16 15 15 15 15
15 17 17 18 20 20 20 20 20 20 20 19 19 18 17 16 16 15 15 15 14 14 14 14 15 15 15 15 16 16 16 16 16 16 16 16 16 16 16 16 16 16 15 15 15 15 15 15 15
16 16 17 19 20 20 19 19 19 19 18 19 18 18 17 15 15 15 14 14 14 14 14 14 14 14 14 15 15 15 15 15 15 16 16 16 16 16 15 15 15 15 15 15 15 15 15 15 15
15 16 18 19 19 19 18 18 17 17 17 17 17 17 16 14 14 14 14 14 13 13 13 13 14 14 14 14 14 14 14 15 15 15 15 15 15 15 15 15 15 15 15 15 15 15 15 15 15
14 15 17 18 19 18 17 17 16 16 16 16 16 16 15 14 14 14 13 13 13 13 13 13 13 13 13 13 13 13 14 14 14 14 14 14 15 15 15 15 15 15 15 15 14 14 14 14 14
15 14 16 17 17 16 16 16 16 16 16 16 15 15 14 14 14 13 13 13 12 12 12 12 12 12 12 12 13 13 13 13 13 13 14 14 14 14 14 14 14 14 14 14 14 14 14 14 14
15 15 16 16 15 15 15 15 15 15 15 15 15 14 14 14 13 13 13 13 12 12 12 11 11 12 12 12 12 12 12 12 13 13 13 13 13 13 13 14 14 14 14 13 13 13 13 14 14
15 15 15 14 13 13 14 14 14 14 14 14 14 13 13 13 13 13 13 12 12 11 11 11 11 11 11 11 12 12 12 12 12 12 12 12 12 13 13 13 13 13 13 13 13 13 13 13 13
14 14 14 13 13 13 13 13 13 13 13 13 13 13 13 13 13 12 12 12 11 11 11 10 11 11 11 11 11 11 11 11 11 11 12 12 12 12 12 12 12 12 12 12 12 12 12 12 12
14 14 13 13 13 13 12 13 13 13 13 13 13 13 12 13 12 12 12 11 11 10 10 10 10 10 10 10 10 11 11 11 11 11 11 11 11 11 11 12 12 12 12 12 12 12 12 12 12
12 12 13 13 13 13 12 12 13 13 13 13 13 13 13 12 12 12 11 11 11 10 10 10 10 10 10 10 10 10 10 10 10 10 10 11 11 11 11 11 11 11 11 11 11 11 11 11 11
12 12 12 13 13 13 11 11 14 14 13 13 13 13 13 12 12 12 11 11 10 10 10 9 9 9 9 9 9 9 10 10 10 10 10 10 10 10 10 11 11 11 11 11 11 11 11 11 11
12 12 13 13 13 13 12 11 13 14 13 13 13 13 13 12 12 11 11 10 10 10 9 9 9 9 9 9 9 9 9 9 9 10 10 10 10 10 10 10 10 10 10 10 10 10 10 10 10
12 13 14 13 13 12 11 12 13 14 13 13 13 13 12 12 11 11 10 10 10 9 9 9 9 9 8 8 8 9 9 9 9 9 9 10 10 10 10 10 10 10 10 10 10 10 10 10 10
12 12 13 13 13 11 11 12 13 13 13 13 13 13 12 12 11 11 10 10 9 9 9 8 8 8 8 8 8 8 8 9 9 9 9 9 9 9 9 10 10 9 9 9 9 9 9 9 9
12 12 12 13 13 11 11 11 13 13 13 13 13 13 12 11 11 10 10 9 9 9 8 8 8 8 8 8 8 8 8 8 8 8 9 9 9 9 9 9 9 9 9 9 9 9 9 9 9
12 11 11 11 11 12 11 11 12 13 13 13 12 12 12 11 10 10 10 9 9 8 8 8 7 7 7 7 7 7 7 8 8 8 8 8 8 9 9 9 9 9 9 8 8 8 8 8 8
11 11 11 10 9 10 11 9 12 12 11 11 12 12 11 11 10 10 9 9 9 8 8 7 7 7 7 7 7 7 7 7 7 7 7 8 8 8 8 8 9 8 8 8 8 8 8 8 8
10 10 10 10 9 9 10 9 11 11 11 10 11 11 11 10 10 10 9 9 8 8 7 7 7 6 6 6 6 6 6 7 7 7 7 7 8 8 8 8 8 8 8 8 8 8 8 8 8
10 10 10 9 9 8 10 10 11 10 10 10 10 11 11 10 10 9 9 8 8 7 7 7 7 6 6 6 6 6 6 6 6 6 6 7 7 7 8 7 7 7 7 7 7 7 7 8 8
9 9 9 9 9 9 11 10 10 12 11 11 10 11 10 10 9 9 8 8 7 7 7 7 6 6 6 6 6 6 6 6 6 6 6 6 7 7 7 7 7 7 7 7 7 7 7 7 7
9 9 8 9 10 11 11 9 11 12 12 12 11 11 10 10 9 9 8 7 7 7 7 6 6 6 6 6 6 6 6 6 6 6 6 6 6 6 6 7 7 7 7 7 7 7 7 7 7
10 9 9 8 9 8 10 12 12 11 11 11 11 11 10 10 9 8 8 7 7 7 7 6 6 6 6 5 6 6 6 6 6 6 6 6 6 6 6 6 6 6 6 6 6 6 6 7 7
8 9 8 7 8 9 11 11 10 10 9 10 10 10 10 9 9 8 8 7 7 7 7 6 6 6 6 5 5 5 5 5 5 5 5 5 5 5 5 6 6 6 6 6 6 6 6 6 6
8 8 8 7 8 8 9 10 12 10 10 9 9 10 10 9 9 8 8 7 7 7 6 6 6 6 5 5 5 5 5 5 5 5 5 5 5 5 5 5 5 5 5 6 6 6 6 6 6
9 9 8 7 7 7 7 9 12 11 10 10 10 10 10 9 8 8 7 7 7 6 6 6 6 5 5 5 5 5 5 5 5 5 5 5 5 5 5 5 5 5 5 5 5 6 6 6 6
Wind_Speed
13 13 9 3 4 6 7 4 1 4 4 5 6 4 4 4 5 6 4 5 6 5 7 8 9 9 8 7 8 7 6 6 6 6 5 5 5 5 6 7 7 7 7 8 8 9 9 10 10
13 9 6 4 4 6 6 4 3 5 5 4 3 2 2 3 6 7 5 5 5 6 7 7 8 8 8 7 6 6 6 5 5 5 5 4 4 5 6 6 7 7 7 7 8 9 9 10 11
11 9 4 4 6 5 0 5 7 7 5 2 2 3 2 3 6 5 4 4 5 6 7 7 8 7 7 6 5 5 5 4 4 4 4 4 4 4 5 6 6 6 7 7 7 8 9 10 10
6 4 5 6 11 5 1 5 7 4 3 2 1 1 2 5 5 5 4 5 5 5 6 6 6 6 6 5 4 4 4 4 3 2 3 3 3 3 4 5 5 6 6 7 7 8 8 9 10
4 4 6 7 10 3 2 5 3 1 2 1 1 1 1 6 7 7 5 5 5 5 5 5 5 4 4 4 3 3 3 3 2 1 1 2 2 3 4 5 5 6 6 7 7 7 8 9 10
4 4 5 9 8 4 3 2 1 3 0 1 1 1 1 5 7 5 4 5 5 4 4 3 3 3 2 2 2 2 1 1 1 0 1 3 3 4 4 5 6 6 7 7 7 7 8 8 9
5 4 7 8 4 2 3 3 1 3 1 1 3 1 2 5 6 4 4 5 4 4 3 3 2 2 2 1 1 0 0 1 1 1 2 3 4 5 5 6 6 7 7 7 7 7 8 8 9
4 4 6 6 4 1 4 2 3 5 3 3 3 2 2 5 4 3 4 3 3 4 4 4 4 4 3 1 1 1 1 2 2 2 3 4 4 5 5 6 6 8 8 7 7 8 8 8 9
4 4 5 3 2 3 4 1 2 3 4 2 1 3 2 3 3 3 2 2 3 4 3 3 4 4 4 3 3 2 2 3 3 3 3 3 4 4 5 5 6 7 8 8 8 8 8 8 8
4 4 2 4 6 4 3 2 2 3 5 4 2 1 2 1 1 2 3 3 3 4 4 3 3 3 3 3 2 2 2 2 2 3 3 3 4 4 4 5 6 7 8 8 8 8 8 7 6
4 3 2 4 7 5 3 4 4 6 6 4 2 2 2 3 3 3 3 3 2 3 4 3 3 3 3 2 2 1 1 1 2 3 3 3 2 2 2 3 4 4 6 6 6 6 6 6 6
3 3 3 2 3 4 5 5 5 7 6 5 5 4 4 5 4 4 4 3 3 3 3 3 3 3 3 3 2 1 1 1 1 2 4 2 2 2 2 3 4 4 4 4 5 4 5 6 7
5 2 2 2 3 5 7 9 9 9 6 5 5 5 6 6 5 3 3 3 2 3 3 2 2 2 3 3 3 2 2 3 3 3 4 3 3 3 3 3 4 4 4 4 4 4 4 4 5
2 3 4 5 6 5 8 11 8 8 5 6 6 6 6 6 4 3 3 3 3 3 3 3 3 2 2 3 3 3 3 3 3 3 4 5 4 4 4 3 4 4 4 5 5 4 4 4 4
3 5 6 7 7 3 5 10 10 8 5 7 7 6 6 5 4 4 3 3 3 3 3 3 3 2 2 3 4 4 3 4 4 3 4 6 5 5 5 4 4 4 4 5 4 3 3 2 3
5 5 5 5 6 4 3 9 4 4 4 7 7 6 4 4 4 3 2 2 3 3 3 4 4 3 3 3 4 4 4 4 4 4 4 5 6 6 5 4 4 4 4 4 3 3 2 2 3
5 5 5 3 5 3 6 9 4 4 5 8 7 5 4 4 4 3 2 2 2 3 3 4 3 4 4 4 5 5 4 4 4 4 4 5 6 6 5 5 4 5 4 4 4 3 3 3 3
2 5 4 3 3 4 9 13 10 7 7 8 6 4 3 4 4 2 2 2 2 3 3 4 4 4 4 4 4 4 4 4 4 4 4 5 5 6 5 4 5 5 4 4 4 4 3 3 3
6 7 9 6 1 5 11 14 13 7 6 6 5 4 4 3 3 2 2 2 2 3 3 3 4 4 3 3 3 3 4 4 4 4 5 6 6 6 5 5 5 6 5 5 5 3 4 3 2
7 9 9 6 2 5 11 15 12 7 6 4 4 4 4 3 2 2 3 3 3 4 4 4 4 4 4 4 4 4 4 4 4 4 5 6 6 6 6 6 6 6 5 6 6 4 3 3 3
7 7 6 8 10 8 8 10 6 5 4 3 4 3 2 2 3 3 4 4 3 4 4 4 4 5 5 5 4 4 3 3 3 4 4 5 6 6 6 6 6 6 6 6 6 6 5 5 4
5 2 5 8 7 5 2 6 5 5 4 4 3 2 1 2 3 3 4 4 4 4 3 4 4 5 5 5 4 5 5 5 5 4 4 4 5 5 6 6 6 7 6 7 7 6 5 6 5
2 4 7 8 7 7 5 5 6 4 4 4 3 2 2 2 2 3 3 4 4 3 3 4 4 5 5 5 5 5 6 5 4 4 5 4 4 5 5 5 5 6 6 7 7 7 7 5 6
3 5 7 5 3 5 6 6 6 3 4 4 3 2 2 2 2 3 3 3 4 4 4 4 5 5 5 5 5 5 6 6 6 6 5 4 3 3 4 4 5 6 6 7 7 7 7 6 6
3 2 1 2 3 5 3 4 6 1 3 3 3 2 2 2 2 3 3 4 5 5 5 5 5 5 5 4 4 5 6 6 7 7 6 5 3 3 4 5 5 5 5 6 6 7 7 7 7
4 2 1 3 3 3 1 5 3 4 3 2 2 2 1 1 2 3 3 5 5 5 5 4 5 5 4 4 4 5 5 4 5 6 5 4 4 4 5 5 5 5 5 6 6 6 7 7 7
2 2 1 1 4 5 6 4 2 3 2 1 1 1 1 2 2 3 3 5 5 5 4 4 5 5 4 4 5 5 4 4 5 5 4 4 4 4 5 5 5 5 6 6 6 5 6 6 7
3 1 1 2 2 5 6 4 3 2 1 1 1 2 2 2 3 4 4 5 5 4 4 4 4 4 4 4 4 4 3 3 4 4 4 4 4 4 4 4 4 4 5 6 6 5 6 6 6
5 3 3 3 3 3 5 4 1 3 1 0 1 2 2 3 4 4 5 5 5 4 4 4 4 4 4 4 4 4 3 3 3 3 3 3 3 4 4 4 4 4 5 5 5 5 5 6 6
4 5 5 3 4 4 4 5 1 4 3 2 2 2 2 3 4 4 5 5 4 4 4 4 3 4 4 4 3 3 3 2 2 3 3 2 3 3 3 3 3 4 4 5 5 5 5 5 6
Wind_Direction
293 263 244 238 235 232 240 227 154 82 61 38 15 5 10 4 20 99 120 35 39 63 63 60 50 48 52 57 61 67 78 88 97 106 111 127 143 154 158 161 165 164 164 161 156 150 145 139 135
290 258 235 236 240 238 231 189 150 73 70 60 22 339 356 46 69 90 71 21 34 60 67 59 58 51 50 57 61 66 75 86 95 102 107 122 145 158 164 167 166 168 169 166 162 153 148 144 141
273 258 236 230 232 249 41 77 80 81 80 79 47 360 3 44 64 66 48 11 36 62 65 66 67 56 51 54 58 63 69 80 91 105 115 121 143 160 166 173 173 169 167 163 160 157 153 151 152
254 226 240 245 249 259 1 73 74 87 99 87 85 39 53 49 52 62 46 20 31 49 60 69 71 64 56 52 56 62 65 71 85 105 125 134 143 159 164 169 168 168 163 159 155 157 159 159 160
248 239 230 237 245 238 39 55 74 210 141 119 65 360 54 71 73 61 35 19 29 34 54 62 56 72 67 55 53 63 73 75 78 105 151 169 167 163 166 166 165 166 165 158 157 160 166 166 168
241 244 242 238 232 187 134 78 302 271 62 82 49 287 116 93 72 50 28 20 25 23 43 73 49 54 85 76 58 53 78 70 68 112 206 200 194 186 175 172 173 170 167 164 165 169 174 172 174
260 255 257 267 257 171 98 58 318 306 276 2 347 309 147 73 55 41 28 17 15 12 21 41 35 29 50 114 114 66 305 226 263 269 241 210 207 205 195 185 180 179 174 171 174 176 179 181 183
300 279 259 263 258 154 73 52 9 339 335 3 344 304 102 64 40 26 19 5 12 11 16 19 17 9 1 6 262 231 247 243 243 246 243 220 210 209 200 191 191 186 178 178 182 184 185 186 190
288 265 260 291 334 77 83 50 20 347 297 281 323 340 27 62 25 5 355 347 2 6 17 16 6 360 357 341 318 282 253 244 236 228 225 218 209 206 203 198 194 187 182 183 186 189 187 185 191
234 257 317 18 15 25 35 337 343 283 268 261 246 299 316 337 337 311 308 321 347 355 3 6 351 345 345 335 338 310 265 248 232 219 203 211 211 212 210 196 191 192 186 181 184 190 188 184 181
235 264 8 21 19 359 332 309 307 284 269 274 277 302 322 302 300 300 303 324 344 352 350 349 340 337 329 312 307 308 281 243 239 226 211 216 194 187 172 169 177 183 179 173 176 177 185 187 181
255 284 312 359 4 318 299 292 281 260 272 330 337 321 304 292 290 294 308 321 345 339 320 334 337 323 320 307 291 291 283 256 250 230 222 206 196 207 193 190 184 185 184 173 174 193 203 194 187
239 259 286 299 273 272 277 268 267 260 263 276 284 285 278 276 277 287 307 313 320 312 307 311 306 300 303 287 272 274 259 260 242 225 219 203 204 208 203 205 190 191 184 179 196 205 200 197 196
306 287 272 262 256 258 273 273 257 251 234 248 249 250 259 264 265 277 292 298 307 309 305 294 294 278 286 287 269 258 261 261 246 228 219 208 204 205 204 209 201 196 182 191 201 208 208 202 195
289 263 251 227 231 230 294 270 230 229 228 248 248 245 248 255 255 260 257 281 300 299 308 297 296 286 282 288 274 268 261 259 251 238 225 215 209 204 208 202 198 196 188 200 209 214 205 205 206
234 245 242 190 197 175 231 272 211 175 220 246 247 244 240 244 249 256 255 282 302 304 308 296 298 296 283 280 270 259 254 255 247 230 225 224 216 205 205 197 198 197 189 190 205 203 202 209 208
215 247 249 186 194 205 228 267 252 204 239 251 247 240 235 237 244 245 265 286 304 305 307 291 285 286 282 276 264 255 252 249 247 232 221 227 225 213 204 196 198 185 188 189 205 202 195 204 217
258 263 278 247 186 263 261 265 264 245 241 251 248 230 226 240 246 243 260 273 287 294 296 291 277 274 283 276 270 260 255 251 247 236 227 226 224 215 204 197 196 182 186 192 196 200 203 200 208
306 293 284 284 294 291 272 274 274 249 234 244 247 231 222 234 252 258 271 284 292 297 299 300 288 282 286 279 266 257 250 246 244 232 230 229 224 212 202 202 195 188 192 196 196 198 195 201 191
271 276 282 291 302 284 280 279 271 237 212 211 234 239 227 237 264 280 295 300 296 289 287 297 297 288 282 278 268 252 255 250 241 236 231 224 220 215 211 198 198 192 191 196 198 192 197 209 187
255 264 292 301 310 264 272 283 230 196 187 195 226 224 220 266 284 285 287 288 299 293 284 295 294 289 284 282 282 275 276 272 261 248 237 225 220 212 210 206 203 196 194 197 200 200 200 203 208
267 320 303 299 302 290 276 294 249 181 194 211 229 220 235 267 276 284 289 294 297 294 291 286 289 286 291 282 275 267 262 259 258 248 242 232 225 217 212 206 205 202 200 198 203 207 199 198 209
286 317 287 278 275 284 246 244 267 161 206 220 218 225 242 267 283 294 302 300 303 308 303 290 287 284 287 282 274 270 269 263 261 257 251 241 230 222 215 209 202 208 208 202 205 207 205 204 211
285 274 259 251 262 269 230 222 268 199 210 211 204 238 255 290 301 291 302 313 308 309 299 288 281 287 285 275 269 264 268 265 264 260 247 236 225 222 214 212 210 211 216 211 206 209 209 210 215
261 280 297 282 241 249 173 221 257 176 149 167 185 212 250 272 300 303 313 311 306 303 294 284 281 289 289 284 274 265 265 258 252 252 243 233 228 228 214 214 210 211 218 216 212 211 212 209 212
221 241 208 251 276 301 246 241 248 111 94 67 129 178 232 270 288 293 300 296 296 292 288 282 281 282 287 293 287 275 267 261 255 252 244 233 234 228 211 204 209 212 217 222 214 215 218 214 214
219 206 352 274 283 279 255 226 163 98 94 28 33 307 278 292 302 301 297 298 296 289 277 271 272 275 284 291 291 281 264 261 262 258 251 230 227 229 212 204 207 213 217 218 214 221 223 218 220
284 296 162 203 256 273 270 239 236 183 230 261 281 287 321 326 317 310 303 297 300 293 278 279 273 275 284 283 277 286 273 264 253 248 246 232 220 220 207 207 207 217 223 220 218 221 223 223 227
185 205 216 233 254 249 284 282 36 138 148 299 282 311 319 306 304 305 307 305 300 297 286 286 282 286 287 284 280 283 283 278 258 246 240 228 220 211 209 209 213 219 221 220 220 224 223 225 228
209 206 188 201 241 232 265 278 77 75 57 41 4 329 303 301 310 312 313 312 312 303 297 296 292 293 290 286 290 291 293 286 269 254 247 231 227 218 213 205 218 228 229 223 218 225 234 236 234
Height
1484 1487 1489 1492 1494 1492 1484 1470 1464 1467 1470 1475 1476 1477 1480 1483 1485 1496 1495 1493 1492 1491 1491 1491 1491 1492 1493 1494 1495 1495 1497 1498 1499 1500 1501 1502 1503 1504 1505 1506 1507 1508 1509 1510 1511 1512 1513 1514 1515
1483 1487 1491 1492 1491 1490 1478 1467 1467 1470 1475 1477 1479 1480 1481 1484 1487 1490 1491 1492 1491 1491 1491 1491 1491 1491 1492 1493 1494 1495 1496 1497 1498 1499 1500 1501 1502 1503 1504 1505 1506 1507 1508 1510 1510 1511 1513 1513 1514
1484 1488 1491 1487 1484 1480 1472 1466 1468 1472 1476 1478 1481 1482 1483 1486 1488 1490 1491 1491 1491 1491 1490 1490 1490 1491 1491 1492 1493 1494 1495 1496 1497 1498 1499 1500 1501 1502 1503 1504 1505 1506 1508 1509 1510 1511 1512 1513 1514
1486 1489 1488 1486 1480 1470 1468 1469 1471 1474 1477 1479 1482 1484 1485 1488 1489 1490 1490 1491 1490 1490 1490 1490 1490 1490 1490 1491 1492 1492 1493 1494 1495 1497 1498 1499 1500 1501 1502 1503 1504 1505 1506 1507 1508 1510 1511 1512 1513
1486 1487 1485 1482 1475 1469 1468 1470 1474 1475 1478 1480 1482 1484 1486 1488 1488 1489 1489 1490 1490 1489 1489 1489 1489 1489 1489 1489 1490 1491 1492 1493 1493 1495 1496 1497 1498 1499 1500 1501 1502 1503 1505 1506 1507 1508 1509 1510 1511
1486 1482 1483 1479 1470 1467 1469 1473 1475 1476 1478 1480 1482 1484 1487 1487 1487 1488 1488 1489 1489 1488 1488 1487 1487 1487 1487 1488 1488 1489 1489 1490 1491 1492 1493 1494 1496 1497 1498 1499 1500 1501 1503 1504 1505 1506 1507 1508 1509
1485 1481 1479 1471 1468 1468 1471 1474 1476 1477 1479 1481 1482 1483 1486 1486 1486 1487 1487 1487 1487 1487 1487 1486 1486 1485 1485 1485 1485 1486 1487 1487 1488 1489 1490 1491 1493 1494 1495 1496 1498 1499 1500 1502 1503 1504 1505 1506 1508
1483 1481 1474 1470 1468 1470 1474 1476 1478 1479 1480 1482 1483 1483 1485 1485 1486 1486 1486 1486 1486 1485 1485 1484 1483 1483 1483 1483 1483 1483 1484 1484 1485 1486 1487 1488 1489 1491 1492 1493 1495 1496 1497 1499 1500 1501 1503 1504 1505
1483 1484 1476 1470 1469 1472 1475 1477 1479 1480 1481 1481 1482 1483 1484 1484 1484 1485 1485 1484 1484 1483 1483 1482 1481 1480 1480 1480 1480 1480 1481 1481 1482 1483 1484 1485 1486 1487 1489 1490 1491 1493 1494 1496 1497 1498 1500 1501 1503
1482 1482 1475 1473 1473 1474 1476 1478 1480 1480 1480 1480 1481 1482 1482 1483 1483 1483 1483 1483 1482 1481 1480 1479 1479 1478 1477 1477 1477 1477 1478 1478 1479 1480 1480 1481 1482 1483 1485 1486 1488 1490 1491 1492 1494 1495 1497 1498 1500
1479 1478 1475 1475 1476 1477 1478 1479 1480 1480 1479 1479 1479 1480 1481 1481 1481 1481 1481 1481 1480 1479 1478 1477 1476 1475 1475 1474 1474 1474 1474 1475 1476 1476 1477 1477 1479 1480 1481 1482 1484 1486 1487 1489 1490 1492 1493 1495 1496
1478 1477 1476 1477 1479 1480 1480 1479 1479 1478 1477 1478 1478 1478 1478 1479 1479 1479 1479 1478 1477 1476 1475 1474 1473 1472 1472 1471 1471 1471 1471 1471 1472 1473 1473 1474 1474 1476 1477 1478 1480 1482 1483 1485 1486 1488 1489 1491 1493
1477 1477 1478 1478 1479 1479 1479 1478 1477 1474 1475 1475 1476 1476 1476 1476 1477 1477 1476 1476 1475 1474 1473 1472 1470 1469 1468 1468 1468 1467 1467 1468 1468 1469 1470 1470 1470 1472 1473 1475 1476 1478 1479 1481 1482 1484 1486 1488 1490
1477 1477 1477 1477 1477 1477 1477 1474 1474 1469 1472 1472 1473 1473 1473 1473 1474 1473 1473 1473 1472 1471 1470 1469 1467 1466 1465 1464 1464 1464 1464 1464 1464 1465 1465 1466 1467 1468 1469 1470 1472 1474 1476 1477 1479 1481 1483 1484 1486
1478 1478 1476 1474 1474 1475 1476 1471 1467 1466 1468 1469 1470 1470 1470 1470 1470 1470 1470 1470 1469 1468 1467 1465 1464 1462 1461 1461 1460 1460 1459 1460 1460 1460 1461 1462 1462 1463 1465 1466 1468 1470 1472 1474 1476 1478 1479 1481 1483
1478 1477 1475 1469 1470 1472 1478 1470 1462 1463 1465 1466 1466 1466 1467 1467 1467 1467 1467 1466 1466 1465 1463 1462 1460 1459 1457 1456 1456 1455 1455 1455 1455 1456 1456 1457 1458 1459 1460 1461 1463 1465 1468 1470 1472 1473 1475 1476 1478
1476 1475 1468 1468 1467 1468 1472 1467 1460 1461 1462 1462 1462 1462 1463 1463 1464 1464 1463 1463 1462 1461 1460 1458 1456 1454 1453 1452 1451 1450 1450 1450 1450 1451 1452 1453 1453 1454 1456 1457 1459 1461 1463 1465 1467 1469 1471 1473 1474
1474 1470 1465 1465 1465 1467 1467 1462 1456 1457 1458 1457 1457 1458 1459 1460 1460 1460 1460 1459 1458 1457 1456 1454 1452 1450 1449 1447 1446 1446 1445 1445 1445 1446 1447 1448 1449 1450 1452 1453 1455 1456 1459 1460 1463 1465 1468 1469 1471
1472 1471 1468 1463 1463 1467 1463 1458 1452 1451 1452 1453 1453 1454 1455 1457 1457 1457 1456 1455 1454 1453 1451 1450 1447 1446 1444 1443 1442 1441 1440 1440 1440 1441 1442 1443 1444 1446 1447 1448 1450 1452 1454 1456 1458 1461 1463 1465 1467
1471 1471 1467 1462 1461 1464 1460 1454 1447 1445 1447 1449 1450 1451 1452 1453 1453 1453 1452 1451 1450 1448 1447 1445 1443 1441 1440 1439 1438 1437 1435 1435 1436 1436 1437 1439 1440 1441 1442 1444 1446 1447 1450 1452 1454 1456 1458 1461 1463
1469 1470 1468 1467 1463 1458 1459 1451 1442 1442 1443 1445 1447 1447 1449 1449 1449 1449 1448 1447 1446 1444 1442 1440 1438 1437 1435 1434 1433 1432 1431 1430 1431 1431 1432 1434 1435 1437 1438 1439 1441 1443 1445 1447 1449 1452 1454 1456 1458
1469 1466 1467 1467 1470 1464 1460 1463 1442 1440 1442 1442 1444 1445 1446 1446 1446 1446 1445 1443 1442 1440 1438 1436 1434 1432 1430 1429 1428 1427 1426 1425 1425 1427 1428 1429 1431 1432 1433 1434 1436 1438 1440 1442 1445 1447 1449 1451 1452
1468 1467 1467 1467 1467 1467 1458 1464 1445 1439 1442 1441 1441 1442 1443 1444 1443 1443 1442 1440 1439 1437 1434 1432 1430 1428 1426 1424 1423 1422 1421 1421 1422 1422 1422 1423 1425 1427 1428 1429 1431 1434 1435 1437 1440 1442 1444 1446 1448
1467 1467 1465 1464 1467 1469 1453 1456 1445 1439 1438 1438 1439 1440 1440 1440 1440 1440 1439 1437 1435 1433 1431 1428 1426 1423 1422 1420 1419 1418 1417 1416 1416 1417 1417 1418 1420 1421 1423 1425 1427 1429 1430 1432 1435 1437 1439 1441 1444
1468 1470 1471 1470 1468 1459 1444 1449 1444 1432 1431 1433 1435 1437 1438 1438 1437 1436 1435 1433 1431 1429 1427 1425 1422 1420 1418 1416 1415 1414 1413 1412 1412 1412 1413 1414 1414 1416 1418 1421 1423 1424 1426 1428 1430 1432 1434 1436 1438
1466 1467 1474 1473 1463 1452 1447 1449 1436 1429 1429 1430 1432 1434 1435 1435 1435 1434 1433 1431 1428 1426 1423 1421 1419 1416 1414 1412 1411 1410 1409 1408 1408 1408 1408 1409 1410 1412 1414 1416 1418 1420 1422 1424 1425 1427 1430 1431 1433
1464 1467 1466 1470 1466 1465 1449 1434 1430 1429 1429 1430 1431 1431 1432 1433 1432 1431 1430 1428 1425 1423 1420 1418 1416 1413 1411 1410 1408 1406 1406 1405 1404 1404 1404 1406 1407 1409 1410 1412 1413 1415 1417 1419 1420 1422 1424 1426 1428
1465 1463 1469 1471 1470 1463 1443 1435 1435 1432 1430 1429 1429 1430 1430 1430 1430 1428 1427 1425 1422 1420 1418 1415 1413 1410 1409 1407 1405 1403 1402 1402 1401 1401 1402 1403 1404 1405 1406 1408 1409 1411 1412 1414 1415 1418 1419 1421 1422
1465 1466 1465 1466 1465 1465 1456 1441 1425 1427 1426 1427 1428 1428 1428 1428 1427 1425 1424 1421 1419 1417 1414 1412 1410 1407 1405 1404 1403 1401 1400 1399 1398 1398 1398 1399 1400 1401 1402 1404 1405 1406 1408 1409 1411 1413 1414 1416 1417
1458 1458 1462 1469 1466 1462 1461 1447 1424 1424 1425 1426 1427 1427 1427 1426 1425 1423 1421 1419 1416 1413 1411 1408 1406 1404 1402 1401 1400 1398 1397 1396 1395 1395 1395 1396 1396 1398 1398 1400 1401 1402 1403 1405 1407 1408 1409 1410 1411